Champaign, IL

11:55 PM CST on December 14, 2019 (GMT -0600)
Univ Of Illinois-Willard

Weather History for KCMI - July, 2019

Change the Weather History Date:

Monday, July 22, 2019

  Actual Average Record
Temperature  
Mean Temperature 68 °F 74 °F  
Max Temperature 80 °F 84 °F 95 °F (2011)
Min Temperature 56 °F 64 °F 51 °F (2000)
Degree Days  
Heating Degree Days 0 0  
Month to date heating degree days 0 0  
Since 1 June heating degree days 7 17  
Since 1 July heating degree days 0 0  
Cooling Degree Days 3 9  
Month to date cooling degree days 305 207  
Year to date cooling degree days 649 522  
Since 1 June cooling degree days 539 430  
Growing Degree Days 22 (Base 50)    
Moisture  
Dew Point 59 °F    
Average Humidity 62    
Maximum Humidity 79    
Minimum Humidity 44    
Precipitation  
Precipitation T in 0.16 in 3.20 in (2002)
Month to date precipitation 3.56 3.20  
Year to date precipitation 24.31 22.53  
Sea Level Pressure  
Sea Level Pressure 30.00 in    
Wind  
Wind Speed 10 mph (NNE)    
Max Wind Speed 18 mph    
Max Gust Speed 27 mph    
Visibility 10 miles    
Events      
T = Trace of Precipitation, MM = Missing Value Source: NWS Daily Summary

Daily Weather History Graph

Daily Weather History Graph

Search for Another Location

Airport or City:

Astronomy

Jul. 22, 2019 Rise Set
Actual Time 5:42 AM CDT 8:16 PM CDT
Civil Twilight 5:11 AM CDT 8:47 PM CDT
Nautical Twilight 4:32 AM CDT 9:26 PM CDT
Astronomical Twilight 3:48 AM CDT 10:09 PM CDT
Moon 11:37 PM CDT (7/22) 10:58 AM CDT (7/22)
Length of Visible Light 15h 36m
Length of Day
14h 34m
Waning Gibbous, 72% of the Moon is Illuminated
Jul 22
Waning Gibbous
Jul 24
Last Quarter
Jul 31
New
Aug 7
First Quarter
Aug 15
Full

Hourly Weather History & Observations

Time (CDT) Temp. Heat Index Dew Point Humidity Pressure Visibility Wind Dir Wind Speed Gust Speed Precip Events Conditions
12:53 AM 71.1 °F - 64.9 °F 81% 29.93 in 10.0 mi NE 5.8 mph - N/A   Clear
1:46 AM 69.1 °F - 64.0 °F 84% 29.95 in 10.0 mi NNW 5.8 mph - N/A   Mostly Cloudy
1:53 AM 69.1 °F - 63.0 °F 81% 29.94 in 10.0 mi North 5.8 mph - N/A   Mostly Cloudy
2:48 AM 69.8 °F - 62.6 °F 78% 29.94 in 10.0 mi North 6.9 mph - N/A   Mostly Cloudy
2:53 AM 69.1 °F - 62.1 °F 78% 29.92 in 10.0 mi North 6.9 mph - N/A   Mostly Cloudy
3:53 AM 69.1 °F - 61.0 °F 75% 29.93 in 10.0 mi North 9.2 mph - N/A   Partly Cloudy
4:53 AM 69.1 °F - 60.1 °F 73% 29.94 in 10.0 mi North 6.9 mph - N/A   Clear
5:53 AM 69.1 °F - 59.0 °F 70% 29.95 in 10.0 mi North 6.9 mph - N/A   Scattered Clouds
6:53 AM 69.1 °F - 59.0 °F 70% 29.98 in 10.0 mi North 8.1 mph - N/A   Scattered Clouds
7:53 AM 69.1 °F - 61.0 °F 75% 29.99 in 10.0 mi North 8.1 mph - N/A   Scattered Clouds
8:53 AM 70.0 °F - 63.0 °F 78% 30.01 in 10.0 mi NNE 8.1 mph - 0.00 in   Mostly Cloudy
9:53 AM 71.1 °F - 63.0 °F 75% 30.01 in 10.0 mi NNE 10.4 mph - N/A   Mostly Cloudy
10:53 AM 73.0 °F - 63.0 °F 71% 30.00 in 10.0 mi NNE 13.8 mph 18.4 mph N/A   Partly Cloudy
11:53 AM 73.9 °F - 64.0 °F 71% 30.01 in 10.0 mi NNE 13.8 mph 19.6 mph N/A   Partly Cloudy
12:53 PM 73.9 °F - 62.1 °F 66% 30.01 in 10.0 mi NNE 15.0 mph 23.0 mph N/A   Clear
1:53 PM 78.1 °F - 63.0 °F 60% 30.02 in 10.0 mi NNE 12.7 mph 20.7 mph N/A   Clear
2:53 PM 78.1 °F - 61.0 °F 56% 30.03 in 10.0 mi NE 9.2 mph - N/A   Scattered Clouds
3:53 PM 80.1 °F 81.1 °F 61.0 °F 52% 30.03 in 10.0 mi North 15.0 mph 21.9 mph N/A   Partly Cloudy
4:53 PM 79.0 °F - 59.0 °F 50% 30.02 in 10.0 mi North 15.0 mph 23.0 mph N/A   Mostly Cloudy
5:53 PM 77.0 °F - 59.0 °F 54% 30.02 in 10.0 mi North 12.7 mph - N/A   Clear
6:53 PM 73.9 °F - 55.0 °F 52% 30.04 in 10.0 mi NNE 15.0 mph 23.0 mph N/A   Clear
7:53 PM 71.1 °F - 48.9 °F 45% 30.06 in 10.0 mi NE 9.2 mph - N/A   Clear
8:53 PM 66.9 °F - 48.9 °F 52% 30.07 in 10.0 mi NE 8.1 mph - N/A   Clear
9:53 PM 64.0 °F - 48.0 °F 56% 30.09 in 10.0 mi NE 5.8 mph - N/A   Clear
10:53 PM 64.0 °F - 51.1 °F 63% 30.09 in 10.0 mi NNE 6.9 mph - N/A   Clear
11:53 PM 59.0 °F - 52.0 °F 78% 30.10 in 10.0 mi NNW 4.6 mph - N/A   Clear